Theta_e
300 292 290 290 293 293 295 296 296 293 296 292 290 288 287 287 289 291 291 292 291 291 290 290 290 291 294 295 295 292 290 290 290 292 292 291 293 296 297 299 302 304 307 309 309 310 314 318 320 322 322 322 322 323 323 323 323 324 325 324 324 325 327 328 328 327 328 327 327 327 327 327 329 329 329 328 328 327 326 325 325 325 324 324 323 322
298 291 291 294 294 295 295 295 294 293 293 291 290 287 287 287 284 288 290 292 292 290 288 288 287 291 294 295 294 289 289 290 291 292 292 293 292 294 296 297 298 302 303 302 304 306 310 314 317 319 320 319 320 321 322 322 323 324 324 324 324 325 326 327 328 328 327 329 329 328 328 328 329 329 328 328 328 328 327 326 326 326 325 325 325 324
291 290 292 294 295 295 295 295 295 293 292 292 290 288 286 286 287 289 290 292 291 290 288 287 287 289 293 294 293 288 290 291 293 294 295 295 293 292 293 295 297 297 298 300 303 305 308 311 314 317 319 320 321 322 322 323 323 323 324 324 324 324 325 327 328 328 327 328 328 328 327 328 325 327 330 330 329 328 328 328 327 326 326 326 326 326
287 291 294 295 296 294 293 293 294 294 293 291 289 286 284 288 286 287 289 290 291 289 287 284 285 288 292 293 292 289 289 290 291 292 293 293 294 293 293 295 296 296 297 298 300 303 306 309 312 315 317 319 321 321 322 322 322 323 323 324 324 324 324 326 327 325 328 327 325 321 319 322 325 324 321 326 326 328 328 328 328 327 327 327 327 327
288 291 296 295 295 295 292 292 292 291 290 291 290 287 286 287 288 287 287 288 289 289 287 286 286 285 289 291 291 290 290 290 292 290 290 291 293 295 295 294 294 296 297 298 298 299 302 305 309 313 315 318 318 320 321 322 323 324 323 324 324 324 324 325 325 325 326 322 319 318 314 315 316 315 321 324 325 327 326 327 327 327 327 327 327 327
289 293 296 294 294 294 293 290 291 292 289 289 291 290 290 290 288 288 289 289 287 287 290 290 282 284 285 288 289 292 289 288 290 290 292 292 293 293 293 295 296 296 297 297 298 298 300 304 307 311 313 315 317 319 321 323 323 323 324 324 324 324 324 324 324 325 324 323 324 320 321 320 321 322 320 321 322 323 324 325 327 327 327 327 327 326
291 293 295 292 291 291 292 291 292 293 289 287 288 292 292 291 290 289 288 288 282 282 288 288 284 279 283 287 288 287 286 289 290 289 292 293 293 293 294 295 296 296 296 295 296 296 297 299 303 308 312 315 316 318 320 321 323 323 323 323 324 324 324 324 323 324 322 323 323 322 324 324 323 323 323 325 322 326 326 326 326 327 327 327 327 325
289 290 293 292 290 289 290 289 292 292 289 286 292 293 292 291 289 289 289 288 285 287 288 287 284 280 282 288 286 283 284 286 288 289 290 291 292 293 294 295 296 297 296 296 296 296 297 298 301 305 310 314 316 317 318 319 321 322 322 323 323 324 323 324 323 322 323 323 323 322 322 322 322 322 323 321 317 316 320 324 326 326 326 326 327 326
290 288 291 289 289 288 288 291 293 293 290 289 292 293 291 291 291 290 289 286 285 285 283 284 285 281 278 282 285 285 286 284 287 288 290 292 292 293 294 296 296 297 297 297 297 296 297 298 299 302 306 312 315 315 317 318 319 321 322 321 322 323 322 322 321 321 321 322 324 323 322 321 321 322 319 309 310 317 318 323 324 325 325 325 326 326
290 291 292 293 290 287 290 291 291 293 289 291 294 294 293 293 291 291 286 287 285 283 281 284 283 280 278 279 283 284 284 284 286 288 290 291 293 293 294 295 296 296 296 295 296 297 297 297 298 299 302 306 311 314 315 316 316 318 319 319 319 321 322 321 320 320 320 321 321 322 322 321 320 317 311 310 312 315 317 321 322 324 323 323 323 323
289 293 295 293 290 292 292 292 292 293 293 295 294 292 291 290 287 284 285 285 284 279 282 284 283 281 277 281 285 285 285 286 288 288 287 289 290 291 293 295 297 297 295 295 294 294 294 294 295 295 299 302 304 308 310 312 313 315 317 318 318 320 321 319 320 319 320 320 321 321 321 321 320 317 314 311 310 313 315 319 320 321 322 322 322 322
290 291 290 288 291 291 291 289 291 293 294 294 291 288 288 286 286 286 284 284 279 278 281 282 281 281 277 278 282 285 284 283 289 289 291 290 291 292 292 293 293 293 293 293 293 293 293 292 293 293 296 298 302 304 308 310 310 311 314 316 317 317 318 318 319 318 319 320 320 320 321 320 320 318 315 315 315 313 315 317 318 318 319 319 320 320
286 287 286 289 290 291 288 289 287 291 292 292 290 289 284 280 282 277 281 278 279 277 281 279 281 281 281 283 284 284 285 286 285 288 291 290 289 290 289 290 292 292 291 293 293 294 293 294 295 295 296 296 299 304 307 309 310 311 312 314 315 316 317 317 318 318 318 319 319 320 320 320 320 319 317 316 316 314 314 315 315 316 317 317 317 318
284 284 285 287 289 290 291 286 284 285 288 289 288 286 283 278 277 275 276 273 274 279 280 281 282 280 281 282 289 291 293 292 291 289 289 288 290 291 291 290 291 292 291 292 293 294 294 295 295 296 296 297 298 300 304 306 308 309 311 312 314 316 316 316 317 318 318 318 319 319 320 320 319 318 317 316 317 315 314 313 315 316 318 317 318 318
279 280 285 286 284 288 290 290 290 287 287 288 291 289 285 282 276 274 275 276 277 279 279 281 280 278 280 283 287 294 295 296 292 287 288 288 289 290 289 290 292 293 293 293 292 293 294 295 295 296 297 297 298 298 300 303 305 307 309 310 311 313 314 314 316 317 317 318 318 319 320 320 319 318 317 317 316 314 313 312 313 314 316 317 318 319
284 282 285 289 287 290 289 290 291 290 287 287 288 290 285 285 283 278 277 277 275 276 276 277 280 281 284 285 287 288 288 289 290 289 288 290 290 289 290 293 294 295 295 293 293 294 293 293 292 294 295 296 296 296 297 299 301 304 307 309 311 313 314 314 313 316 317 318 318 317 318 318 316 314 315 313 311 312 313 312 313 312 313 315 314 312
283 283 286 288 287 289 291 291 291 293 282 285 286 284 286 289 287 280 278 280 278 276 277 276 278 281 282 288 292 288 287 289 289 290 288 289 289 288 290 292 293 295 295 294 294 295 294 293 292 293 292 293 294 295 297 299 300 302 304 306 308 309 310 311 311 314 315 316 315 315 316 316 314 314 314 314 311 311 310 311 312 312 311 309 310 310
284 282 284 285 286 288 287 288 290 290 288 286 283 286 288 290 287 284 278 275 275 274 275 274 279 278 279 280 285 286 286 290 290 290 290 288 288 289 292 293 294 295 296 294 293 293 292 292 293 293 292 293 295 296 296 298 298 300 302 304 305 306 308 309 310 312 313 313 313 313 313 314 315 315 314 313 312 309 309 308 308 306 306 308 308 309
290 280 284 285 286 289 287 289 290 290 289 289 287 291 288 281 281 280 278 273 272 273 271 274 275 276 278 283 281 284 287 291 291 290 288 289 289 290 292 293 292 291 292 293 294 294 293 293 294 294 294 294 295 296 297 297 297 297 297 300 303 305 307 307 308 309 311 312 313 314 313 314 314 313 313 312 310 308 309 308 308 308 309 306 305 305
290 282 282 286 286 288 288 289 284 287 289 289 289 286 285 285 282 280 280 277 277 274 272 274 276 279 281 282 283 287 286 288 290 289 289 291 292 292 292 293 294 292 292 293 294 294 293 293 293 295 296 295 295 295 296 296 296 297 299 298 299 300 301 302 304 306 308 309 310 311 310 310 312 311 312 310 309 308 309 308 308 308 305 306 304 305
286 286 280 285 287 287 284 286 286 287 285 284 284 284 285 284 284 283 282 280 279 270 270 271 273 279 280 284 288 290 292 289 289 290 291 291 290 290 291 292 293 292 292 292 292 292 292 293 293 293 293 294 292 293 294 296 298 299 298 299 300 303 302 303 305 306 308 309 309 308 308 309 309 308 308 307 308 308 308 308 306 307 307 302 303 302
285 284 282 282 283 284 283 284 285 289 290 288 288 285 287 283 280 281 279 280 277 278 273 270 277 280 284 288 291 291 294 293 290 291 292 291 290 290 291 291 291 292 291 290 290 290 292 292 292 290 290 290 290 291 294 296 296 297 298 301 301 302 304 304 305 306 307 306 307 307 307 306 304 306 305 306 306 306 306 305 305 303 299 302 300 300
286 284 284 279 283 284 287 286 285 285 287 287 287 287 287 285 282 279 277 277 277 278 277 276 273 282 289 289 290 291 292 294 290 289 290 291 289 289 289 289 289 289 290 291 291 291 291 290 291 291 290 293 294 294 293 293 297 299 299 299 300 302 303 303 303 302 303 305 306 305 304 304 303 304 303 304 303 303 302 301 299 298 301 299 296 294
291 283 281 278 283 284 284 284 285 284 288 287 285 282 283 285 283 281 279 278 281 277 277 276 275 282 288 290 290 290 290 291 287 285 289 288 288 289 289 289 289 291 292 292 290 289 290 288 288 290 291 292 292 292 294 296 297 298 299 300 299 300 299 299 300 301 303 303 304 304 302 303 301 301 302 303 301 301 298 297 297 297 299 298 296 296
288 283 285 275 275 279 280 283 284 285 285 282 282 283 282 282 280 280 279 279 278 280 281 278 277 278 287 284 286 286 286 288 291 287 286 289 290 290 290 289 289 289 290 290 291 291 291 290 290 291 291 292 293 291 293 295 297 297 297 296 298 297 297 298 298 300 300 301 302 301 303 302 301 302 301 302 299 298 296 296 296 295 297 295 295 295
282 282 284 280 277 275 274 276 279 283 283 281 281 281 283 285 282 283 280 279 279 281 282 280 282 282 283 286 288 287 285 287 288 287 286 288 290 290 289 289 289 289 292 290 290 291 292 291 289 289 289 291 291 294 295 295 295 294 294 296 293 296 294 295 294 299 301 301 303 302 302 302 301 302 302 301 300 299 298 297 296 295 293 296 296 293
283 284 287 285 284 281 283 282 285 286 284 283 283 284 285 286 286 287 283 279 281 282 280 285 284 281 285 287 286 288 285 287 290 288 287 289 289 288 287 288 289 290 291 291 291 291 288 289 291 291 289 292 292 291 293 293 294 292 292 291 291 293 296 295 297 299 302 302 303 302 302 302 301 301 300 300 301 299 298 297 296 296 295 293 295 294
283 284 285 286 286 288 284 282 285 289 285 287 285 285 286 286 285 285 282 283 284 279 280 284 283 283 284 284 287 288 288 287 287 287 287 286 287 289 288 286 289 289 290 289 289 290 292 291 289 289 290 289 291 291 291 291 291 293 293 294 291 292 294 295 297 299 302 302 302 303 302 302 301 301 300 299 298 298 297 296 295 296 295 294 295 294
288 286 287 286 286 285 283 285 286 288 287 287 287 286 284 285 284 284 285 287 285 284 282 283 284 284 285 286 288 288 290 291 291 290 287 286 286 286 287 289 288 289 290 291 292 293 292 292 291 290 290 290 289 290 290 289 288 288 288 289 290 291 294 294 297 298 300 301 302 302 301 300 298 298 297 296 296 296 295 295 295 294 293 293 292 291
290 286 287 286 286 285 283 284 286 287 284 285 286 287 287 285 285 286 287 288 287 286 287 281 284 285 287 288 288 290 290 289 288 287 287 286 286 286 286 287 290 291 291 292 292 292 293 294 293 292 291 290 290 291 291 291 291 291 292 292 291 292 293 293 297 298 299 300 301 300 299 297 295 296 295 295 296 295 294 293 292 292 292 292 291 290
290 282 287 284 281 280 282 283 285 285 285 284 285 287 287 287 287 287 287 288 287 287 288 284 283 284 287 286 288 288 287 288 286 285 288 288 287 287 288 289 288 289 291 291 291 291 291 291 290 289 290 291 292 292 292 293 292 291 292 293 292 293 292 293 295 296 297 299 298 295 294 294 294 293 294 294 293 292 292 292 291 291 291 289 289 289
285 279 283 283 281 277 280 283 281 282 283 283 284 284 286 286 284 286 285 287 285 285 285 285 284 286 286 290 289 288 288 288 289 289 289 289 287 287 289 288 287 288 289 291 291 291 290 290 290 291 292 293 293 291 291 292 291 290 292 292 292 291 289 290 293 295 294 293 293 293 294 293 293 293 293 292 292 291 291 290 290 290 289 288 288 288
282 280 279 279 281 277 280 281 281 281 281 279 282 285 287 287 288 286 288 289 289 289 285 284 285 287 289 291 291 287 287 288 289 289 289 288 287 287 289 289 289 288 289 290 291 291 291 292 292 292 293 292 292 292 291 290 290 291 291 291 291 288 288 290 290 292 292 291 291 292 292 292 292 292 291 291 291 290 290 290 289 289 288 288 288 287
285 285 281 283 280 274 277 281 280 279 274 279 291 291 289 287 287 285 286 287 289 289 289 291 288 286 286 288 290 290 289 291 293 293 292 292 290 286 287 287 289 290 290 290 290 291 291 291 291 291 290 290 289 288 287 288 290 290 289 289 288 288 289 290 289 289 290 289 290 290 290 291 291 291 291 290 290 290 290 289 289 288 288 288 287 288
287 286 281 279 278 273 274 279 279 276 277 288 285 289 291 290 289 288 289 289 290 290 291 290 287 285 288 289 290 291 292 292 292 292 290 287 288 289 290 290 290 290 291 291 291 290 290 290 290 288 287 287 287 286 286 287 288 286 286 288 288 288 289 289 290 289 289 289 289 289 289 290 290 291 289 289 289 289 289 289 288 287 287 287 287 288
287 287 277 271 272 273 272 279 274 277 286 282 282 282 287 291 290 288 286 289 290 290 290 289 291 287 287 288 288 289 290 289 287 285 285 286 287 291 289 291 291 290 290 292 292 292 289 287 288 289 289 287 287 287 287 288 287 287 287 286 289 287 289 289 290 290 289 289 288 288 288 289 288 288 288 287 287 288 288 288 287 287 287 287 287 287
290 285 284 276 272 275 274 279 280 280 281 285 284 283 286 285 283 285 283 286 289 291 290 290 290 290 289 287 286 284 284 287 288 290 286 285 287 288 292 292 293 292 292 290 288 288 287 286 287 288 286 284 286 286 287 285 286 287 286 286 286 287 287 288 289 289 288 288 288 287 287 288 288 287 287 287 287 287 287 287 286 286 286 287 286 286
288 286 283 283 273 273 275 270 270 274 276 282 284 285 289 288 290 289 286 286 290 291 292 291 289 290 291 288 286 284 286 289 286 288 290 291 290 289 288 289 288 287 287 287 286 286 285 284 284 284 284 284 285 285 285 285 287 287 286 286 285 286 286 287 289 288 287 287 287 286 286 287 287 287 287 287 287 287 286 285 285 285 286 287 286 286
282 283 285 286 276 271 272 275 274 274 279 281 282 286 288 288 289 286 281 282 287 290 291 291 290 289 290 289 286 285 287 285 288 291 293 293 294 289 288 288 288 288 286 285 287 288 286 285 285 284 284 284 285 284 283 285 286 287 286 286 285 286 287 287 288 287 287 286 285 285 285 286 286 286 286 286 286 286 286 285 285 285 285 285 285 283
281 277 280 276 271 277 276 273 276 273 279 280 282 283 287 288 291 288 272 280 284 289 290 290 289 289 290 290 287 288 288 286 289 292 290 293 294 292 291 293 291 287 285 283 283 282 283 283 284 285 284 285 286 283 284 284 286 285 285 284 284 285 287 287 286 285 285 284 285 285 285 286 286 286 286 286 285 285 285 284 283 283 284 283 283 282
276 275 278 281 277 275 281 271 269 277 281 280 279 283 286 291 289 279 277 283 283 284 287 290 290 291 292 289 288 288 290 294 290 289 290 290 289 288 287 285 285 284 286 285 285 283 283 282 285 287 286 284 283 283 284 286 286 286 285 284 285 286 287 285 284 284 285 284 284 284 285 285 286 285 285 286 285 284 282 283 283 282 282 281 281 281
274 276 271 273 276 279 278 278 278 278 282 284 280 286 289 288 277 279 284 283 283 283 284 287 287 288 287 287 288 291 293 291 285 287 286 286 289 286 284 282 281 282 281 281 281 282 282 281 281 281 282 281 280 282 284 286 287 286 284 284 286 286 282 282 282 282 282 282 283 282 282 283 282 284 284 283 282 282 281 280 282 282 281 281 281 281
282 280 277 279 273 269 268 275 269 274 281 286 287 285 286 285 284 284 281 282 281 281 283 284 286 285 288 287 288 290 292 287 287 288 286 284 284 285 284 282 283 284 284 283 283 280 281 282 281 281 280 279 280 281 282 283 285 283 283 285 283 279 279 280 280 280 280 280 279 279 280 279 280 281 281 281 281 281 280 279 280 280 281 281 281 280
285 282 275 279 281 280 278 276 278 284 285 289 290 287 287 288 284 285 285 287 282 280 284 285 283 286 287 290 288 288 288 285 285 285 285 284 282 282 281 281 282 282 282 282 282 282 279 281 278 277 276 276 278 279 281 282 283 281 281 281 276 277 277 278 278 279 278 277 276 277 277 276 277 278 279 280 280 280 279 279 280 280 281 281 281 280
284 286 286 283 282 281 281 284 285 284 288 290 293 292 293 291 282 285 287 288 287 283 282 284 287 284 286 288 287 287 285 285 288 286 287 289 286 284 284 283 283 283 282 281 280 277 278 280 279 276 275 274 272 273 277 278 281 278 279 276 275 277 277 277 277 277 277 275 275 275 274 274 275 276 277 278 280 279 279 279 279 280 280 280 280 280
286 286 281 284 283 285 285 285 282 280 283 287 284 283 292 292 283 281 285 287 285 285 285 288 284 285 285 285 287 283 286 286 287 285 285 285 284 282 281 281 280 279 279 277 277 277 276 275 274 275 275 274 270 271 270 274 277 279 276 274 274 275 276 276 276 275 274 272 272 272 273 274 273 273 274 276 277 279 280 280 280 280 280 280 280 280
281 282 283 283 282 284 281 289 285 284 284 285 289 284 285 289 290 284 284 286 286 284 285 283 285 285 286 285 288 288 287 285 285 286 284 283 283 282 282 282 280 279 278 278 277 275 274 274 276 274 273 275 270 269 269 268 271 273 274 274 274 274 275 275 275 274 272 272 272 271 273 275 274 274 274 273 274 276 278 279 280 280 280 280 280 279
283 283 288 281 282 285 286 286 284 285 285 287 287 285 287 287 286 284 284 283 283 283 283 284 281 281 283 285 287 287 286 283 284 284 284 284 285 283 282 281 280 278 276 276 275 273 274 275 276 274 273 273 270 268 268 269 270 270 272 273 274 273 274 274 274 274 272 271 272 273 273 274 274 275 275 274 276 277 276 276 278 280 280 280 280 279
285 287 283 283 284 286 284 280 282 284 287 286 286 285 285 286 288 287 284 283 283 284 283 281 280 282 285 288 286 284 283 282 284 284 284 283 281 282 282 281 279 279 276 276 273 273 277 275 274 273 273 272 268 267 267 267 268 268 272 273 273 274 275 274 272 272 271 271 271 272 272 273 274 274 275 274 274 272 273 278 279 280 278 277 277 281
286 285 284 285 283 283 285 285 284 282 280 285 286 289 289 287 286 286 283 283 282 284 283 285 283 281 281 282 285 285 287 285 282 281 283 283 284 283 280 279 277 276 275 273 273 273 272 272 273 273 272 271 267 266 266 266 267 268 270 271 273 274 275 273 272 271 271 271 272 272 273 273 273 273 275 275 275 275 276 279 280 278 277 277 281 283
287 286 286 285 284 284 288 286 289 290 288 288 291 289 289 284 285 286 286 287 285 284 284 285 284 282 282 280 279 285 285 284 282 281 280 279 280 280 281 280 278 277 276 274 274 272 273 273 271 271 271 270 267 266 266 266 266 267 268 270 272 274 274 273 273 272 271 271 271 272 273 273 273 273 274 275 276 276 276 276 279 283 283 282 282 283
Wind_Speed
4 10 13 15 14 15 13 13 5 0 7 6 4 2 6 6 6 5 3 4 3 2 10 10 8 9 14 14 15 5 4 4 5 7 8 7 8 9 9 10 12 13 17 11 10 9 11 12 12 11 10 11 11 11 12 12 13 13 13 11 14 12 11 10 10 10 10 10 9 9 11 12 9 8 7 8 8 8 7 7 8 8 8 7 7 7
4 10 12 5 3 10 8 6 6 4 3 6 5 3 5 3 6 4 4 2 2 5 5 6 6 12 17 14 10 2 5 7 9 11 11 12 10 10 11 12 13 15 6 5 6 7 7 11 12 10 10 9 12 13 12 14 14 13 12 14 14 11 11 12 12 11 11 11 11 11 10 8 8 8 9 9 7 8 7 8 8 8 8 8 8 8
8 12 5 4 5 9 7 7 5 7 5 2 4 3 1 6 1 9 10 6 2 3 9 1 6 10 12 16 10 4 7 6 8 10 14 14 10 8 9 11 13 7 10 8 8 6 9 10 11 11 12 12 14 12 14 14 13 14 14 14 13 12 12 12 12 11 12 11 9 10 7 9 5 4 6 6 5 6 7 8 9 9 9 9 9 8
5 7 9 8 10 11 6 8 9 6 2 5 3 5 8 2 2 8 3 1 2 3 2 3 6 7 8 13 12 6 6 7 7 8 10 6 9 10 12 14 12 11 12 14 13 12 10 11 12 12 12 13 11 13 13 12 14 12 13 12 12 11 11 12 13 13 11 10 7 5 4 6 8 6 5 5 4 7 8 10 9 9 9 9 9 8
7 3 8 11 10 12 11 9 10 10 10 5 5 3 2 4 2 2 3 4 3 2 2 1 3 6 6 12 11 6 8 6 7 6 6 6 8 10 8 5 6 13 15 15 11 9 8 9 12 15 15 12 14 14 14 14 14 12 14 13 13 12 13 12 12 12 9 7 5 5 3 3 3 1 5 6 8 10 9 8 9 10 8 8 9 8
2 7 9 11 10 11 13 12 14 11 9 7 6 6 3 2 6 6 6 6 2 3 3 3 4 10 4 9 13 8 0 5 7 8 11 11 10 8 9 12 10 10 10 13 15 14 13 14 13 11 11 13 14 15 16 14 15 13 13 12 12 11 11 12 11 12 10 10 11 9 9 9 9 10 8 12 15 11 10 13 6 6 9 9 8 8
4 7 12 11 9 9 12 11 12 12 9 8 8 9 6 7 4 5 7 2 3 6 4 1 10 8 5 7 8 7 6 11 6 7 13 11 9 8 10 11 12 13 13 11 10 7 7 11 8 10 13 16 16 17 12 11 13 14 12 12 13 13 11 11 11 11 11 10 11 13 14 13 13 12 11 10 6 8 8 5 7 8 7 9 9 8
5 9 11 10 10 11 9 11 10 13 8 8 5 14 10 5 5 6 6 6 7 2 4 0 3 7 7 10 3 3 3 7 9 9 10 10 9 11 11 13 13 14 13 12 14 13 12 11 13 16 17 15 17 13 9 13 12 13 15 14 15 12 11 11 11 11 13 13 11 12 13 13 12 13 13 9 6 4 4 7 8 7 7 8 8 8
12 9 14 12 11 11 13 8 8 11 9 2 5 11 9 10 10 7 3 5 3 2 8 2 1 3 6 8 4 0 2 6 11 11 11 12 12 13 14 15 15 15 14 13 13 13 15 15 14 14 13 15 12 10 13 13 12 12 12 12 11 13 12 9 10 11 11 12 13 13 12 12 10 10 8 4 5 5 6 8 7 7 7 7 8 8
3 13 15 17 13 12 7 9 12 14 9 3 6 4 2 3 1 3 5 4 2 2 10 8 4 5 8 5 5 1 2 6 7 10 11 13 14 15 15 14 15 13 10 9 12 12 11 11 11 11 9 6 12 11 10 9 9 9 10 11 12 13 10 10 10 11 12 13 11 12 12 14 11 7 5 5 6 6 6 8 8 8 7 7 7 7
2 4 10 10 12 10 12 9 8 14 6 4 7 5 2 2 2 1 2 3 1 7 13 6 4 5 7 6 10 7 7 8 9 7 6 6 8 10 11 13 14 13 10 9 9 9 9 7 7 6 9 10 6 6 6 8 9 9 10 12 14 14 11 10 11 11 13 12 12 13 13 14 13 10 8 6 6 6 7 9 9 8 7 6 7 6
2 4 6 3 3 3 5 3 2 7 6 9 3 5 3 2 0 1 1 1 4 10 2 3 2 1 9 4 6 7 5 5 9 9 10 9 11 11 7 8 9 8 7 8 7 9 10 7 6 5 8 8 7 5 8 9 7 8 10 11 13 12 12 10 11 11 12 12 13 12 12 13 12 11 10 12 11 10 10 9 8 6 5 6 6 6
2 4 2 1 4 12 6 9 4 5 5 6 7 8 8 3 4 4 2 7 11 6 0 2 3 1 15 7 7 7 8 9 7 9 11 9 6 7 6 8 7 6 6 8 9 9 7 10 10 9 9 6 7 11 11 11 11 10 10 12 14 15 12 12 11 13 13 13 14 13 13 12 11 12 12 12 11 9 9 8 7 8 8 6 7 7
5 1 2 4 3 5 12 12 8 7 8 9 11 10 8 7 7 9 5 2 4 4 3 1 2 6 2 5 12 16 14 12 13 11 9 7 10 9 8 5 4 6 6 8 8 8 8 10 9 9 9 10 10 10 11 10 10 10 11 12 14 15 12 11 12 13 13 14 14 12 13 12 11 12 11 11 11 9 8 7 9 9 9 8 10 9
11 7 10 10 5 3 9 11 12 4 7 9 1 5 6 4 4 7 5 11 6 6 1 2 2 8 5 6 8 16 14 13 7 4 6 8 9 8 6 7 7 6 6 6 7 9 10 11 10 10 10 10 10 9 9 8 10 9 10 11 13 11 11 12 14 12 15 14 13 12 12 12 10 11 10 10 9 8 8 7 8 8 7 8 8 9
14 3 2 2 0 8 10 3 7 8 6 5 5 2 5 13 5 3 4 3 2 2 2 2 7 2 4 3 8 7 8 9 8 7 5 11 8 5 8 10 10 7 7 5 6 8 9 7 5 5 5 6 6 6 6 7 8 9 11 11 13 15 14 13 13 13 13 12 10 11 12 12 10 8 8 7 7 7 8 9 9 9 9 8 7 5
3 8 1 2 5 5 13 7 5 10 10 6 6 12 9 4 4 2 2 0 2 2 10 2 6 7 6 10 12 3 5 9 7 9 6 9 6 4 8 9 8 8 6 6 7 8 6 4 4 5 4 4 4 5 7 9 9 11 10 9 10 10 7 9 10 11 10 10 9 10 10 9 9 10 11 10 9 9 8 8 8 8 8 7 7 7
14 5 1 2 4 1 1 1 3 4 4 7 9 8 2 1 3 4 5 1 2 7 7 3 10 4 1 8 5 6 4 11 8 9 7 6 4 5 9 8 9 8 7 5 5 5 5 4 4 3 3 4 5 5 5 7 6 7 8 8 9 8 10 9 9 10 10 10 10 9 10 10 11 11 10 9 9 8 8 7 6 5 6 8 8 8
10 6 3 1 2 1 1 3 1 1 1 9 9 5 10 6 10 2 2 6 5 6 4 3 2 4 9 10 3 3 9 13 11 5 4 6 6 8 9 10 8 5 5 7 7 6 6 6 5 4 5 4 5 5 6 5 5 5 6 6 7 9 9 8 7 7 7 8 8 9 10 11 10 8 8 8 7 7 9 9 8 8 8 6 6 7
4 6 0 1 4 2 1 5 14 11 1 0 3 4 1 1 3 5 8 2 4 7 1 7 2 12 8 7 7 8 7 10 9 6 6 8 9 8 8 8 8 6 6 7 6 6 5 5 5 5 6 6 7 6 5 5 4 5 5 5 5 4 4 5 6 6 7 7 7 7 6 6 7 8 9 8 9 8 9 9 9 8 6 8 7 7
4 2 7 1 0 3 6 7 14 13 11 3 4 6 2 1 1 3 0 5 5 4 4 2 5 9 6 8 10 11 13 10 9 8 7 8 7 7 7 8 7 6 6 5 5 5 5 5 5 5 4 4 3 4 4 5 6 6 5 5 6 7 6 6 7 7 8 8 8 7 8 8 8 8 7 6 7 9 9 8 8 8 8 6 7 7
4 2 9 4 4 9 4 1 2 9 11 9 10 11 12 10 6 10 13 3 2 3 5 3 14 5 5 8 12 13 13 13 8 8 6 6 7 7 6 6 6 6 5 4 4 5 6 5 4 3 1 1 3 4 5 6 5 5 6 7 7 7 7 8 8 9 7 6 6 7 7 7 5 7 6 8 8 8 7 7 7 7 6 8 7 8
5 4 9 7 6 5 1 2 1 1 1 4 7 9 7 6 3 4 9 5 1 4 3 3 4 14 7 9 11 11 10 15 7 8 8 6 6 7 7 5 4 5 6 4 4 4 5 4 3 2 3 4 5 5 4 4 5 6 6 6 6 7 6 5 4 4 4 5 6 7 6 6 6 7 7 8 7 7 7 7 6 6 8 7 7 5
6 5 7 1 1 1 3 1 1 3 1 1 3 1 6 11 7 4 2 5 7 3 2 3 7 7 4 10 15 12 11 14 1 5 5 5 6 6 5 4 3 3 4 4 3 3 3 3 1 1 2 3 3 4 5 5 5 5 5 5 4 5 3 3 4 5 5 5 6 6 6 7 6 7 7 8 7 7 6 6 6 6 7 7 6 7
8 4 11 5 4 2 3 3 3 2 1 5 3 4 2 4 4 2 4 1 2 8 8 5 21 2 2 4 2 4 5 7 11 3 4 4 6 5 3 3 3 4 4 3 2 1 0 1 2 4 4 4 4 4 4 5 5 4 4 4 4 4 4 5 5 5 5 5 6 6 7 7 7 8 7 7 6 6 6 6 6 6 7 7 6 6
3 3 9 11 14 14 11 13 18 20 16 2 0 4 4 7 6 4 5 2 7 7 12 9 15 1 4 1 1 5 3 7 9 7 4 5 6 4 3 3 5 3 2 2 4 3 3 2 2 2 4 4 5 6 5 4 4 4 3 4 4 5 4 5 4 5 6 6 7 6 6 6 6 7 7 6 6 7 7 7 7 7 5 7 8 6
3 3 6 6 11 12 12 1 5 14 6 8 5 8 7 5 11 8 4 4 19 8 9 21 7 3 0 1 4 7 6 8 10 7 6 7 7 4 4 4 5 4 3 3 4 4 3 3 5 5 4 6 5 5 4 4 4 4 4 4 4 5 6 6 6 6 7 7 6 6 7 7 7 7 7 7 7 7 7 7 7 7 8 6 8 9
4 4 7 11 12 15 4 3 4 13 12 15 12 12 11 11 7 10 9 24 6 10 18 8 6 5 5 4 7 7 6 6 7 6 6 5 4 6 4 4 5 5 5 4 4 5 6 5 5 5 6 5 6 5 4 4 4 5 6 6 5 5 6 6 6 7 7 8 8 8 9 8 7 7 7 6 6 7 7 7 7 7 7 7 8 8
9 11 10 11 15 6 2 8 11 9 11 12 15 13 12 11 10 17 24 22 9 15 16 7 11 7 7 7 9 9 8 11 12 10 6 5 2 1 1 1 3 5 6 5 7 6 5 6 6 6 6 7 5 6 6 4 4 3 3 4 5 5 7 7 7 7 7 7 8 8 7 6 6 5 6 6 6 7 7 8 7 7 7 7 6 6
9 10 11 11 14 7 2 7 9 11 4 7 14 16 17 15 20 26 27 19 15 16 11 4 6 12 8 9 9 9 7 4 2 1 0 2 4 5 3 3 6 7 6 7 7 5 5 6 6 7 5 6 7 7 6 5 5 6 6 6 6 6 5 7 7 8 8 9 9 7 6 6 5 6 6 7 8 7 7 7 7 7 7 6 6 6
11 8 11 7 6 3 1 1 3 7 11 9 11 15 17 20 25 28 23 15 16 18 16 3 4 8 7 4 5 2 2 0 1 3 8 5 4 5 8 8 4 4 5 6 7 8 5 5 6 6 6 9 9 9 7 7 6 5 7 6 6 6 5 6 7 7 8 9 6 5 5 6 6 6 7 6 6 6 6 7 6 6 6 6 7 7
3 2 2 6 9 3 0 5 4 3 1 6 9 12 17 24 25 23 15 13 10 20 9 7 14 17 2 7 5 1 1 2 7 7 6 4 3 2 1 3 5 6 7 8 8 7 6 7 7 8 11 11 9 6 7 7 6 6 8 6 6 6 5 6 6 7 6 4 4 5 6 6 6 6 6 6 6 6 6 6 6 7 7 7 7 6
3 5 6 6 10 5 0 5 8 6 4 3 9 20 30 25 15 4 12 15 23 14 8 17 19 5 10 10 11 4 5 7 8 9 8 6 2 4 5 6 6 6 7 8 9 9 10 10 11 10 9 6 6 7 7 6 6 9 7 7 6 5 5 6 5 5 5 5 6 6 6 6 7 7 7 6 7 7 7 7 7 7 8 8 6 7
8 9 6 5 7 2 4 8 3 6 8 15 18 15 12 17 17 14 16 18 15 7 17 15 5 4 4 9 11 11 10 11 12 12 7 6 6 5 6 6 7 8 8 8 9 10 9 6 7 8 7 6 4 4 4 7 8 7 5 6 5 7 6 6 5 5 5 5 6 7 7 7 8 8 8 8 8 9 9 9 9 7 6 7 6 7
13 10 6 3 5 6 4 5 6 11 12 16 3 9 17 16 14 24 27 16 16 19 21 14 5 5 11 11 12 12 12 12 11 11 7 4 4 7 8 10 10 10 11 11 10 9 9 9 6 5 5 6 5 4 4 5 5 4 5 6 7 6 8 7 8 7 7 8 7 7 7 8 8 8 8 8 9 9 9 10 8 8 7 7 7 7
15 14 6 3 5 5 4 8 8 17 11 2 1 2 4 14 20 14 15 18 18 16 17 18 17 6 7 9 9 10 11 8 4 5 6 5 7 8 8 9 11 10 10 11 11 10 6 4 6 7 9 6 5 5 4 5 4 6 5 5 7 6 6 7 7 8 7 7 7 7 6 7 6 6 6 6 6 6 7 7 8 9 8 8 7 5
14 9 9 4 0 9 6 11 14 6 8 8 5 4 11 11 7 13 14 16 11 14 15 17 13 12 10 7 8 5 2 0 3 8 3 6 10 11 13 12 12 13 11 6 3 6 5 5 6 7 4 3 5 5 5 4 5 6 6 6 5 6 6 6 8 8 7 7 7 6 6 6 7 6 6 6 6 5 5 5 5 6 6 8 8 8
8 14 6 12 3 5 8 1 2 7 10 19 6 2 3 4 8 7 7 18 9 17 17 14 10 13 15 7 7 3 3 1 7 9 8 10 12 10 8 10 7 4 4 6 4 3 4 4 3 2 3 4 4 3 3 4 6 6 6 5 5 6 6 7 9 6 7 7 6 6 7 7 7 8 7 7 8 7 6 5 4 5 5 8 9 9
5 3 7 14 5 5 5 9 9 11 18 2 7 10 10 8 12 8 4 17 6 14 12 17 13 12 16 14 9 6 4 8 15 12 12 14 12 7 8 9 8 9 5 4 4 5 5 2 2 2 2 3 4 3 4 6 7 7 7 7 7 7 8 9 8 7 8 6 5 6 6 6 7 8 8 9 8 8 9 8 8 6 6 6 7 8
7 3 5 4 5 8 9 7 12 6 8 3 6 5 11 11 14 9 1 15 2 14 12 14 14 16 17 15 11 12 13 12 18 14 8 12 12 8 9 11 9 6 5 4 3 3 2 3 4 3 4 5 6 5 7 6 7 6 6 5 5 7 9 9 7 5 5 6 7 7 8 7 8 8 9 9 7 7 8 7 8 8 8 7 8 9
4 0 4 13 8 5 8 5 3 8 4 5 5 4 11 13 13 8 17 10 3 6 9 14 17 19 19 14 14 14 17 16 3 5 10 9 6 6 5 4 3 3 6 6 6 4 4 4 4 6 7 5 5 6 7 7 8 7 6 7 7 11 10 5 5 6 6 6 6 6 7 7 8 10 8 8 9 8 8 8 9 9 9 9 8 9
1 5 2 5 7 11 10 10 11 6 6 9 0 14 13 10 7 19 7 1 5 4 2 7 8 8 6 9 10 12 12 6 1 2 1 6 9 4 3 1 1 1 1 0 2 4 3 3 2 1 0 0 3 4 5 6 7 6 6 7 10 5 2 4 4 4 4 5 5 5 5 5 4 5 7 6 8 8 7 5 7 8 9 8 9 11
15 11 11 11 3 5 3 6 1 12 6 9 14 1 6 8 6 4 1 0 3 4 6 3 8 7 10 9 12 14 12 2 4 6 6 5 5 5 6 5 6 6 6 4 3 3 3 4 3 2 1 0 1 1 3 4 6 5 5 7 2 2 4 4 5 5 5 4 4 4 5 4 5 6 5 6 7 9 8 7 8 8 9 10 10 11
8 10 4 6 8 13 13 12 12 7 11 14 20 12 11 11 6 8 7 4 2 4 7 6 4 9 9 11 12 11 9 5 3 5 5 3 5 4 2 3 2 2 2 1 1 4 3 3 3 3 1 2 1 0 1 3 4 4 5 4 2 4 4 5 4 5 5 4 4 5 4 5 5 5 5 7 8 8 10 9 8 8 9 10 11 11
7 14 11 16 8 8 10 13 4 5 14 14 14 11 18 13 4 8 7 8 7 5 5 3 8 5 10 10 8 9 5 7 9 7 8 10 7 7 7 7 6 6 5 4 3 2 2 5 6 4 3 2 3 2 1 0 4 4 5 2 3 4 6 6 5 6 5 5 4 5 4 4 5 5 6 7 9 10 9 9 9 9 7 8 8 9
4 5 4 6 4 5 6 2 4 0 2 9 5 3 10 12 5 4 7 7 5 5 10 8 7 9 8 6 8 4 8 9 10 7 7 6 4 4 3 2 2 1 1 1 2 1 2 3 4 4 4 2 3 3 2 1 2 4 3 3 3 4 5 6 6 5 5 4 4 5 5 6 4 4 4 5 5 7 8 10 10 10 9 8 9 9
3 4 3 4 1 8 9 13 9 5 4 9 9 3 3 4 10 6 4 5 5 7 8 5 7 11 12 11 11 11 10 7 8 8 6 4 5 6 6 7 5 4 5 5 4 4 4 4 4 4 3 2 2 2 2 2 2 2 5 5 4 4 5 6 6 6 5 6 5 4 5 7 6 6 5 5 4 5 6 7 7 9 9 9 9 9
3 4 8 4 6 11 16 9 5 7 7 8 6 4 3 4 4 6 6 3 0 2 3 3 1 4 5 7 10 9 7 6 8 8 7 7 7 6 6 6 6 4 3 2 4 4 4 4 5 5 4 4 0 1 1 2 2 3 5 4 5 5 6 6 7 8 7 6 6 6 6 6 7 8 6 5 6 7 6 6 7 9 11 11 12 12
5 11 6 8 9 9 3 3 2 6 1 1 3 6 6 6 9 9 8 3 2 2 1 1 2 4 10 12 9 6 5 6 8 8 8 6 4 5 7 6 5 5 5 5 4 5 6 5 5 5 5 5 2 1 1 2 2 3 5 5 6 7 8 7 6 6 6 5 6 6 5 6 6 6 7 6 5 3 4 8 9 8 6 3 5 10
10 11 5 7 9 9 15 11 10 7 4 7 9 14 15 12 8 7 2 1 3 6 6 6 3 1 4 2 8 9 9 7 7 6 7 7 7 6 4 5 5 5 4 3 4 4 4 5 5 6 6 5 3 3 3 2 2 2 3 4 6 7 9 8 7 6 6 6 6 6 6 6 6 6 7 7 7 7 5 6 6 3 6 6 5 6
13 12 11 12 12 15 15 7 12 10 9 10 16 15 10 5 7 8 11 9 7 6 6 7 5 2 3 3 3 8 7 7 8 5 4 4 4 4 6 7 8 6 6 5 5 5 5 5 5 5 5 5 4 4 3 3 2 2 3 4 4 6 7 8 8 6 6 6 6 7 7 7 7 7 7 7 8 8 8 7 6 9 8 6 6 7
Wind_Direction
148 166 187 195 193 189 190 194 161 130 142 134 130 116 217 247 268 268 267 259 236 253 222 210 212 226 247 246 248 224 150 200 225 236 238 234 222 218 221 221 226 228 231 227 219 211 208 212 216 217 212 213 211 209 204 205 207 205 202 196 206 201 195 190 187 188 189 193 196 202 204 209 203 203 200 205 205 201 204 198 201 203 205 203 207 205
171 186 207 194 168 176 171 138 124 98 73 138 146 132 238 222 257 290 294 350 308 197 268 232 225 221 234 249 251 123 155 214 212 219 230 232 221 218 217 226 228 231 255 262 229 207 202 210 214 215 217 211 210 214 206 208 208 205 202 203 206 196 198 196 194 193 195 196 199 199 207 203 198 198 202 209 203 205 197 198 203 205 204 205 207 206
195 206 163 160 131 124 138 146 156 149 143 116 158 152 250 256 247 282 275 263 301 170 261 287 214 245 247 253 257 182 206 233 215 207 218 220 223 222 221 229 236 238 243 235 234 213 210 208 206 206 213 214 215 212 210 209 206 206 206 209 203 199 196 199 199 194 199 200 201 197 200 194 199 214 208 213 203 193 201 204 205 206 205 205 210 206
187 224 179 146 137 137 145 157 161 187 156 173 145 176 209 21 125 231 284 357 237 195 288 229 212 265 258 260 260 231 213 243 232 222 239 211 215 219 224 220 223 227 237 236 225 217 209 201 204 205 211 213 208 214 215 209 210 210 213 208 204 203 200 200 202 201 202 198 192 196 171 182 180 189 193 204 204 202 206 212 204 208 207 206 209 206
182 128 158 146 147 153 161 165 170 183 211 184 186 191 120 227 245 256 294 339 299 317 91 66 311 287 227 255 263 248 235 249 253 250 257 242 226 225 233 261 233 230 229 236 234 227 213 205 208 205 207 202 209 212 211 206 206 208 209 207 203 203 204 205 201 198 190 174 168 155 106 118 125 73 180 200 220 214 210 209 206 208 200 206 209 205
218 201 149 148 162 166 166 180 190 179 208 212 222 186 209 246 262 284 312 340 331 292 237 210 287 254 247 252 244 256 136 245 247 235 245 239 231 228 232 233 236 239 235 231 231 222 213 211 211 207 204 206 214 214 212 205 206 206 206 201 203 207 207 207 202 193 186 187 183 174 179 184 195 204 195 200 209 201 202 211 199 193 198 203 205 204
180 150 160 159 161 177 186 197 187 168 195 181 219 168 212 235 264 287 304 334 275 243 291 36 222 267 327 254 243 231 219 235 251 221 242 243 239 232 230 232 232 232 236 238 246 241 224 226 216 214 208 209 210 217 207 204 209 207 203 199 202 205 205 203 199 191 189 191 192 192 198 202 203 209 217 220 218 210 214 195 200 203 195 199 200 202
139 158 162 167 163 175 186 203 191 181 159 212 134 161 208 222 242 259 251 222 251 289 304 146 195 239 267 259 239 297 266 256 261 250 250 249 243 237 232 232 232 232 228 226 230 229 225 220 207 212 211 209 215 210 193 209 207 203 203 200 203 204 204 200 196 193 193 194 195 198 206 206 208 209 219 209 204 190 180 194 203 196 196 195 199 200
141 168 170 176 177 181 198 190 156 180 181 172 156 143 172 196 216 227 200 221 237 360 273 284 206 252 242 267 301 287 264 265 251 249 242 243 237 237 237 237 235 233 226 218 225 225 221 219 215 218 214 216 216 202 205 206 202 203 204 204 202 206 203 200 193 193 197 200 198 201 204 211 217 214 217 167 167 179 182 198 197 197 196 193 196 197
211 173 180 173 177 198 185 173 172 175 186 209 157 145 116 110 122 183 182 193 268 233 248 236 190 227 273 275 300 337 222 253 253 250 239 233 233 230 233 239 241 240 234 226 229 231 229 227 227 222 225 218 215 211 210 209 200 200 197 202 203 210 203 195 195 194 198 202 201 205 206 210 213 207 195 167 179 184 184 202 202 199 193 190 190 194
190 343 176 165 194 192 181 185 169 178 178 113 116 134 137 114 126 5 109 136 140 247 239 224 253 215 278 234 211 194 218 198 236 265 269 259 254 249 237 233 237 238 231 228 231 235 235 232 232 214 214 222 216 208 205 207 202 196 195 199 203 210 201 196 198 193 201 200 204 209 207 209 211 203 189 184 193 186 186 203 203 198 198 187 193 184
35 108 145 237 120 74 133 157 153 175 166 138 147 143 134 262 14 157 311 152 205 251 250 206 205 204 231 287 257 241 251 209 206 223 244 242 236 238 239 250 259 257 241 232 230 237 232 244 246 222 225 215 207 191 206 209 200 198 200 197 206 208 203 197 196 195 203 201 207 212 209 210 210 200 196 200 203 195 198 201 199 193 186 196 190 190
126 165 254 199 278 150 157 159 201 182 176 164 144 174 170 201 163 251 163 217 219 219 246 117 175 323 240 231 278 277 259 251 219 224 236 242 267 265 253 252 255 258 247 230 227 229 225 220 222 219 224 205 199 204 203 203 199 200 199 198 201 208 200 197 193 199 201 202 207 207 207 210 206 204 200 203 207 197 198 193 188 181 196 183 187 195
246 276 188 203 113 235 156 170 175 180 207 179 181 180 169 172 183 209 211 346 331 288 273 62 115 262 292 287 241 264 271 257 241 228 240 243 250 261 262 254 259 259 248 240 234 232 227 222 221 216 212 207 209 208 204 202 200 202 202 200 202 211 196 197 197 201 202 207 207 204 206 208 201 206 200 204 205 199 196 185 191 189 190 191 197 189
162 194 234 158 203 167 169 181 175 154 165 195 179 167 186 186 168 201 187 205 216 209 227 286 72 237 143 246 211 222 235 252 267 202 226 239 243 252 270 281 275 269 250 233 238 232 228 226 217 214 211 211 209 204 202 200 205 201 205 201 206 208 202 198 203 202 207 208 206 205 207 207 202 204 201 204 200 190 189 191 189 190 188 194 197 193
206 215 299 137 274 149 177 208 151 134 161 209 181 85 166 219 120 163 209 153 210 226 286 203 211 185 183 250 289 248 272 281 270 260 251 261 251 251 272 267 263 256 257 233 235 245 242 234 230 227 224 220 214 208 201 206 203 203 209 205 207 207 203 201 201 206 207 209 206 207 205 206 201 201 198 198 191 194 191 188 187 189 191 197 187 185
93 214 52 28 71 166 182 143 189 166 181 191 122 213 220 112 172 90 37 92 88 47 247 130 304 289 301 304 279 277 273 266 268 267 248 253 257 257 252 255 254 250 246 240 232 237 245 236 228 217 213 215 212 208 208 208 204 207 205 206 212 214 210 206 204 207 205 207 203 206 204 199 197 195 197 196 192 193 190 185 190 188 193 180 179 179
160 146 11 103 158 316 48 198 164 209 146 105 202 215 78 69 108 164 220 351 190 209 254 95 229 288 303 261 293 305 274 260 258 247 246 259 263 262 249 247 246 238 236 245 250 253 248 238 232 218 210 205 205 210 216 218 211 211 209 207 208 206 209 208 198 202 200 198 201 198 199 200 199 198 199 192 192 187 178 184 184 177 168 187 184 174
125 94 198 234 118 228 26 139 164 277 293 190 201 173 162 203 221 277 131 228 189 231 265 285 249 247 200 231 346 254 254 266 253 236 241 257 243 239 248 254 257 252 269 258 249 250 248 235 234 217 216 214 213 212 213 217 208 210 214 211 206 210 210 203 198 198 200 198 199 198 200 199 199 198 195 195 184 172 179 181 182 183 188 171 169 166
182 130 37 350 141 195 107 164 200 194 12 77 80 192 236 115 236 156 202 185 134 248 176 282 92 251 187 208 204 266 239 246 267 271 236 238 233 227 238 249 254 251 236 243 245 243 243 239 223 213 210 211 212 209 211 206 195 207 211 202 208 210 194 185 191 189 196 196 194 197 195 199 194 192 192 185 175 178 184 184 181 182 175 184 169 175
175 64 144 141 283 119 180 212 210 169 171 149 142 192 202 194 257 123 206 165 192 186 190 225 278 245 227 202 189 226 255 227 219 231 232 233 236 237 239 242 249 249 254 253 255 265 260 248 240 236 229 220 205 200 193 193 199 206 198 201 197 192 190 188 189 184 197 188 197 187 189 188 185 188 182 173 178 179 185 183 181 183 181 149 179 168
131 189 147 138 121 207 252 275 166 173 182 187 187 200 193 157 171 179 232 43 129 184 230 141 254 269 247 176 194 199 230 257 210 215 244 259 269 262 252 249 238 254 254 256 265 264 266 262 258 262 248 220 175 184 192 202 193 201 199 201 194 193 195 191 194 194 191 183 175 184 185 183 180 174 169 174 178 183 182 178 181 170 151 178 176 170
142 108 106 161 208 180 160 2 305 29 55 184 180 215 170 193 122 194 217 240 4 253 118 191 273 271 174 188 192 202 213 244 214 201 229 249 247 258 266 257 265 250 264 260 252 254 252 251 249 230 205 196 196 203 204 200 202 206 207 202 205 196 207 196 183 163 155 164 171 181 175 167 172 168 174 176 180 184 180 176 167 163 168 172 166 173
105 103 94 352 11 310 316 299 11 14 78 271 275 61 152 199 185 159 161 186 184 232 243 262 265 270 213 168 194 200 211 231 196 166 236 271 265 271 267 286 280 303 283 271 250 248 245 255 275 205 215 218 224 212 211 210 210 211 207 207 194 206 183 150 151 161 166 171 176 168 161 169 168 168 174 181 182 181 174 166 166 169 169 164 156 162
162 227 131 105 59 357 344 334 342 349 171 211 174 187 163 91 87 135 101 80 180 217 190 137 249 120 247 343 326 309 283 257 260 238 174 243 271 258 275 289 292 270 284 312 319 304 270 184 198 223 227 228 231 234 219 214 214 207 211 191 191 186 175 170 164 164 170 164 163 165 168 171 169 173 177 179 171 171 162 167 164 169 164 153 158 158
73 187 141 164 166 169 185 195 207 204 197 147 76 124 153 144 130 140 235 210 244 214 177 214 239 240 284 312 204 249 277 282 269 260 262 225 245 266 293 296 282 281 301 295 297 304 262 241 240 241 232 231 230 222 223 221 215 209 196 198 181 173 169 173 161 162 161 169 166 170 171 168 166 174 175 170 168 170 171 166 165 164 160 161 155 152
170 127 175 172 193 207 209 38 59 90 92 184 197 146 181 184 188 187 164 186 228 212 186 229 202 61 165 166 207 225 222 226 246 256 235 237 252 264 254 265 272 279 274 263 249 263 309 299 260 242 238 232 234 228 226 216 208 198 192 192 188 179 174 173 167 167 168 173 175 173 181 175 177 173 175 177 178 171 167 166 161 158 161 165 157 157
114 166 207 194 202 215 158 163 196 134 174 195 164 193 188 181 176 185 173 225 153 81 239 216 137 192 252 234 221 219 227 243 262 279 253 259 261 237 250 257 286 297 282 274 267 245 233 238 253 253 249 248 243 240 239 225 211 197 189 196 196 183 174 176 173 176 177 177 185 188 189 187 182 181 181 178 170 167 164 157 160 165 158 155 158 161
168 205 211 192 217 184 138 159 169 164 181 176 185 188 185 192 176 201 220 220 126 207 235 116 167 190 223 224 220 219 203 211 219 229 227 211 220 288 297 302 277 263 273 276 255 245 234 233 230 233 235 240 244 246 242 234 234 226 215 207 195 184 188 174 174 181 183 185 193 196 187 182 181 171 163 163 165 165 166 167 164 157 155 157 150 148
161 215 195 179 209 178 191 163 176 165 147 158 186 190 196 188 204 215 225 219 213 233 229 169 182 201 191 211 212 231 221 231 257 273 226 194 216 182 179 228 229 235 244 252 259 257 240 240 240 236 232 237 229 230 227 222 215 209 202 205 199 193 192 165 186 180 187 192 197 188 179 173 165 163 160 165 173 172 164 160 155 151 151 150 145 144
174 218 148 165 167 189 23 355 192 171 155 182 204 196 197 204 215 220 223 221 229 248 242 237 300 272 265 229 252 329 68 195 335 279 221 196 150 167 188 207 229 247 254 265 271 266 255 256 251 248 239 237 228 223 217 216 210 204 211 206 194 198 187 178 185 192 191 200 188 170 161 162 168 159 170 172 160 157 155 151 150 148 145 143 147 148
117 178 72 125 171 237 295 146 146 92 136 178 194 206 212 214 220 222 218 219 216 234 223 255 259 249 178 236 248 165 145 216 236 245 261 255 186 155 168 266 246 244 247 247 250 258 261 252 250 238 234 232 226 215 211 211 202 198 216 200 198 193 169 184 193 191 197 186 159 164 168 170 162 167 169 160 163 157 150 140 145 150 150 147 148 149
129 120 130 149 168 213 71 129 110 99 84 275 243 215 211 214 221 226 229 215 221 213 197 222 238 99 178 187 223 217 204 238 250 251 253 266 216 190 211 230 243 245 245 242 242 240 234 230 231 234 241 244 225 214 217 192 188 209 203 196 196 150 169 186 189 186 183 177 173 179 175 166 169 170 164 170 158 153 148 153 154 156 158 162 152 140
131 135 153 157 166 188 153 136 115 101 201 224 227 214 195 206 208 212 228 221 227 174 227 230 218 163 153 185 192 213 227 236 233 243 220 220 224 221 243 242 243 243 248 251 244 240 242 241 250 244 239 245 248 226 202 188 201 205 185 174 152 164 175 175 186 182 185 177 186 182 178 175 173 176 176 168 163 161 163 165 171 163 151 139 142 151
158 154 160 163 134 161 192 109 129 207 229 236 55 173 189 205 198 209 224 215 218 218 233 238 220 140 180 183 190 201 213 230 236 240 250 228 186 196 209 224 231 236 239 244 252 247 239 234 245 270 281 268 246 230 187 207 196 156 151 158 165 176 170 179 177 187 189 189 190 181 181 181 182 180 175 172 168 169 171 171 160 155 153 149 151 152
170 169 133 51 112 65 103 164 183 218 226 2 274 333 195 190 208 217 245 234 226 219 226 230 225 197 197 202 211 209 207 232 296 274 231 237 204 205 212 227 231 226 234 233 230 245 244 234 229 229 240 234 219 225 197 201 165 163 169 162 170 173 179 179 186 193 186 191 187 188 185 178 179 173 167 168 169 175 174 169 165 156 147 137 129 118
174 128 145 127 212 149 193 184 216 350 346 280 254 208 179 184 163 182 230 249 214 223 220 228 212 207 214 197 212 230 258 28 271 283 263 214 226 224 216 220 218 223 226 250 214 242 232 219 209 224 212 210 200 195 203 170 165 157 147 161 172 166 176 179 196 200 194 192 185 183 176 176 172 170 166 165 165 170 166 157 145 141 141 136 137 137
160 163 176 148 235 131 128 211 345 272 256 240 234 83 140 160 154 163 184 265 208 222 218 223 202 200 220 199 217 173 93 234 279 254 269 250 227 223 234 242 254 276 242 233 248 252 251 248 248 256 196 208 195 186 155 160 162 147 148 163 161 168 181 191 208 196 186 194 183 176 172 171 168 166 164 165 172 164 150 133 123 139 148 144 144 142
33 72 170 171 150 77 143 169 204 210 236 160 157 164 165 145 136 125 81 264 221 201 203 206 197 189 207 202 198 131 124 226 244 233 218 230 236 202 220 240 235 236 230 219 209 222 232 218 181 163 140 148 175 182 155 163 156 150 163 169 173 176 188 206 204 189 189 184 165 163 164 165 165 166 165 169 169 160 156 156 152 143 136 135 131 130
100 109 120 96 144 184 167 178 215 217 240 222 188 181 164 146 118 105 55 255 197 189 188 183 184 187 208 202 161 166 184 221 237 236 196 218 232 216 212 237 240 227 226 225 249 237 196 149 110 117 156 184 197 158 164 157 147 150 163 171 165 185 207 208 192 175 161 159 162 163 165 168 167 168 167 166 157 155 153 142 138 148 141 137 135 135
133 57 175 191 171 178 175 236 332 282 253 235 221 169 147 144 122 126 209 234 213 207 183 179 191 191 198 188 161 191 208 213 208 162 179 203 210 244 254 262 269 205 205 197 208 174 157 184 183 184 194 191 165 168 163 153 144 165 171 166 174 208 211 188 163 161 162 157 159 165 169 170 172 169 171 164 160 151 145 150 147 142 140 136 133 131
144 126 329 82 164 178 196 200 230 261 235 183 281 162 159 107 192 203 213 181 157 202 253 185 181 197 179 176 186 215 227 208 126 14 162 188 191 213 203 194 73 59 29 122 160 163 159 144 147 116 50 261 183 173 160 155 162 167 168 173 208 213 114 134 140 136 140 150 157 160 160 164 161 158 153 144 137 139 138 136 137 141 139 136 137 137
176 164 187 187 166 46 61 205 342 251 233 133 115 77 302 173 227 142 167 19 186 191 157 183 164 184 172 193 202 212 230 149 174 197 213 207 205 212 197 177 185 187 183 173 191 223 171 160 165 156 136 357 147 164 172 162 165 169 168 198 203 106 123 120 125 127 130 134 141 151 153 151 150 142 136 140 141 138 136 139 137 138 139 140 141 140
178 167 181 204 183 175 180 191 211 218 112 162 139 176 203 206 196 157 124 157 245 172 174 170 180 190 183 182 198 220 226 196 256 239 246 264 243 264 258 240 243 239 243 253 230 175 171 147 125 116 45 26 38 71 150 170 162 165 176 193 118 117 104 110 111 117 122 130 135 133 135 139 134 131 137 142 140 139 141 146 146 145 151 151 147 145
207 198 182 187 192 158 196 213 208 176 159 182 176 184 190 192 145 184 145 163 172 232 201 136 195 187 188 185 190 194 200 207 215 202 191 222 210 210 213 211 202 206 203 191 180 149 155 169 157 131 74 23 19 11 32 90 158 161 182 176 137 131 130 126 127 126 132 134 133 128 124 117 129 140 144 152 149 147 149 147 149 144 150 146 143 144
215 188 90 76 249 282 297 212 97 159 190 213 312 233 185 188 208 166 171 165 235 177 165 182 192 187 187 182 152 190 204 205 203 220 226 234 200 222 224 232 229 190 126 106 114 122 117 99 106 117 111 48 14 10 9 27 135 169 197 144 139 132 130 130 125 120 119 115 115 123 127 120 108 115 129 139 145 149 155 154 156 151 152 150 150 150
222 151 113 183 208 159 247 231 182 191 181 202 222 268 292 210 192 179 199 205 193 170 194 232 178 181 180 169 185 185 207 193 193 213 214 220 214 204 197 203 200 186 179 183 178 134 123 130 126 138 141 134 357 6 7 32 44 121 138 151 142 131 125 123 122 118 122 124 127 129 135 137 137 133 131 133 124 130 144 150 149 149 151 155 152 150
261 188 173 176 149 174 229 231 199 186 180 205 197 209 215 208 189 202 209 209 129 208 208 204 103 129 128 180 201 190 198 173 175 199 200 210 213 199 199 197 188 169 189 164 148 142 131 148 154 165 168 178 252 356 22 74 100 133 135 136 137 132 125 126 137 142 147 148 145 148 147 141 142 140 140 142 145 144 143 157 158 160 164 165 163 159
150 125 203 170 182 232 321 7 55 87 163 266 264 243 223 202 199 216 217 223 185 162 165 131 200 194 183 196 184 168 154 206 202 185 182 197 198 204 206 191 186 180 158 153 169 166 177 172 169 178 177 191 200 181 105 125 141 143 148 151 149 147 137 138 137 134 137 142 137 141 142 141 148 147 142 136 120 113 146 164 169 165 165 170 178 176
107 184 178 135 203 216 219 207 130 126 217 241 222 216 221 216 193 189 120 232 186 183 183 180 228 278 222 204 168 174 184 192 196 177 187 190 196 192 170 164 162 159 170 171 153 167 167 176 172 173 185 191 181 177 169 160 164 167 162 159 161 154 143 143 139 142 152 155 154 150 146 144 144 146 144 143 139 129 87 71 102 132 154 156 135 139
178 185 164 186 193 221 225 183 183 191 206 208 200 208 210 153 152 169 196 203 211 208 183 159 150 150 211 245 223 181 190 175 191 172 169 180 199 182 172 163 163 169 177 167 153 181 183 188 180 175 187 189 175 176 173 169 177 184 191 178 171 159 149 147 146 152 157 161 165 164 156 154 152 157 151 150 148 140 133 116 80 87 92 95 110 118